Regional Weather Roundup
Issued by NWS

Home | Current Version | Previous Version | Text Only | Print | Product List | Glossary Off
Versions: 1 2 3 4 5 6 7 8 9 10 11 12 13 14 15 16 17 18 19 20 21 22 23 24 25 26 27 28 29 30 31 32 33 34 35 36 37 38 39 40 41 42 43 44 45 46 47 48 49 50

000
ASUS45 KBOU 311307
RWRCO

WEATHER ROUNDUP FOR COLORADO
NATIONAL WEATHER SERVICE DENVER/BOULDER CO
700 AM MDT THU JUL 31 2014

NOTE: "FAIR" INDICATES FEW OR NO CLOUDS BELOW 12000 FEET WITH NO
SIGNIFICANT WEATHER AND/OR OBSTRUCTIONS TO VISIBILITY.

COZ001>005-013-030-031-311400-
...NORTHWEST COLORADO...

CITY           SKY/WX    TMP DP  RH WIND       PRES   REMARKS
CRAIG          CLOUDY    51  51 100 CALM      30.31S
HAYDEN         CLOUDY    55  48  76 E7        30.32S
MEEKER         CLOUDY    57  53  86 W3        30.31S
MOUNT WERNER   NOT AVBL
STEAMBOAT SPGS CLOUDY    52  50  95 CALM      30.34S
WALDEN         CLOUDY    50  43  76 CALM      30.42R
$$

COZ006>008-011-311400-
...WEST CENTRAL VALLEYS...

CITY           SKY/WX    TMP DP  RH WIND       PRES   REMARKS
GRAND JUNCTION CLEAR     62  58  86 S5        30.19R
MONTROSE       CLEAR     59  52  77 SE7       30.27R
EAGLE          MOCLDY    55  54  94 CALM      30.35S
RIFLE          CLEAR     55  53  93 CALM      30.26R
DELTA          CLEAR     62  54  74 NE3       30.23R
NUCLA          CLEAR     59  52  77 E7        30.29R
$$

COZ017>023-064>068-311400-
...SOUTHWEST COLORADO...

CITY           SKY/WX    TMP DP  RH WIND       PRES   REMARKS
DURANGO        MOCLDY    57  50  77 CALM      30.32R
CORTEZ         CLEAR     54  50  86 NE3       30.24R
PAGOSA SPRINGS CLOUDY    58  49  73 CALM      30.39S
TELLURIDE      CLEAR     52  46  82 E3        30.45S
WOLF CREEK PAS NOT AVBL
$$

COZ009-010-012-014-032>034-037-058>063-311400-
...CENTRAL COLORADO...

CITY           SKY/WX    TMP DP  RH WIND       PRES   REMARKS
ASPEN          PTCLDY    51  48  89 SW3       30.36S
BUENA VISTA    CLOUDY    52  50  93 E3        30.42R
COPPER MTN     CLOUDY    46  41  81 W12       30.62S
BERTHOUD PASS  CLOUDY    37  36  93 NW3       30.66S
COTTONWOOD PAS FOG       50  46  87 CALM      30.50S VSB<1/4
GUNNISON       PTCLDY    50  43  76 N5        30.40R
KREMMLING      CLOUDY    54  50  87 CALM      30.39S
LEADVILLE      CLOUDY    46  45  96 CALM      30.49S
MONARCH PASS   FOG       45  43  93 W14       30.73R VSB<1/4
SALIDA         CLOUDY    54  53  94 CALM      30.46
SUNLIGHT       MOCLDY    50  48  93 CALM      30.55S FOG
WILKERSON PASS SNOW      41  41 100 W5        30.60S VSB 1/2
$$

COZ069>075-311400-
...SAN LUIS VALLEY/SANGRE DE CRISTO MOUNTAINS...

CITY           SKY/WX    TMP DP  RH WIND       PRES   REMARKS
ALAMOSA        CLOUDY    55  52  89 SE6       30.37S
LA VETA PASS   CLOUDY    46  45  93 SW5       30.52S FOG
SAGUACHE       CLOUDY    54  52  94 CALM      30.41R
$$

COZ035-036-038>040-311400-
...NORTHERN COLORADO FRONT RANGE...

CITY           SKY/WX    TMP DP  RH WIND       PRES   REMARKS
DENVER INTL AP LGT RAIN  59  56  89 E3        30.30R
DMNS CITY PARK   N/A     58  57  96 N2        30.31R
AURORA         LGT RAIN  57  57 100 N2        30.33R
FRONT RANGE AP CLOUDY    59  57  94 NE3       30.32R
ERIE MUNI ARPT CLOUDY    58  57  97 CALM      30.30R FOG
BOULDER MUN AP CLOUDY    59  55  88 CALM      30.30S
CENTENNIAL     LGT RAIN  57  54  89 W5        30.32R
BROOMFIELD     SHOWER    57  55  94 NW7       30.32S
FORT COLLINS   CLOUDY    59  57  94 CALM      30.30R
LONGMONT       CLOUDY    60  59  94 SW3       30.32R
$$

COZ041-046-047-076>085-087-088-311400-
...PIKES PEAK/PALMER DIVIDE AND SOUTHERN FOOTHILLS...

CITY           SKY/WX    TMP DP  RH WIND       PRES   REMARKS
COLO. SPRINGS  CLOUDY    56  54  93 E3        30.35S FOG
A. F. ACADEMY  CLOUDY    55  55  99 SE5       30.35S
ELLICOTT       CLOUDY    56  54  93 S3        30.33S
FALCON         CLOUDY    53  53  99 SW3       30.38R FOG
FORT CARSON    CLOUDY    57  57 100 SE7       30.32S
LIMON          CLOUDY    56  55  97 E5        30.32R
MONUMENT HILL  CLOUDY    52  52 100 S7        30.36S
TRINIDAD       CLOUDY    56  55  97 CALM      30.32S FOG
$$

COZ042>045-048>051-090-091-311400-
...NORTHEAST COLORADO...

CITY           SKY/WX    TMP DP  RH WIND       PRES   REMARKS
GREELEY ARPT   NOT AVBL
AKRON          PTSUNNY   59  56  89 SW8       30.26S
BURLINGTON     MOSUNNY   58  54  86 W6        30.26R
WRAY             N/A    N/A N/A N/A SW3       30.23S
STERLING       PTSUNNY   61  61 100 SW5       30.23S FOG
HOLYOKE        SUNNY     61  57  88 W7        30.22R
FORT MORGAN    CLOUDY    59  58  96 CALM      30.27S
$$

COZ086-089-092>099-311400-
...SOUTHEAST COLORADO...

CITY           SKY/WX    TMP DP  RH WIND       PRES   REMARKS
PUEBLO         PTSUNNY   60  59  96 E3        30.28R
LA JUNTA       MOSUNNY   60  58  92 CALM      30.26S
LAMAR          CLOUDY    60  58  92 SW5       30.23S
SPRINGFIELD      N/A     58  56  93 CALM      30.27S
$$



USA.gov is the U.S. government's official web portal to all federal, state and local government web resources and services.